Weather History for Pampa, TX

Change the Weather History Date:

Saturday, December 22, 2012

  Actual Average Record
Temperature  
Mean Temperature 44 °F -  
Max Temperature 55 °F 44 °F 72 °F (1981)
Min Temperature 32 °F 21 °F -7 °F (1983)
Degree Days  
Heating Degree Days 22    
Moisture  
Dew Point 4 °F    
Average Humidity 22    
Maximum Humidity 38    
Minimum Humidity 12    
Precipitation  
Precipitation 0.00 in - - ()
Sea Level Pressure  
Sea Level Pressure 30.02 in    
Wind  
Wind Speed 13 mph (WSW)    
Max Wind Speed 20 mph    
Max Gust Speed 21 mph    
Visibility 10 miles    
Events      
Averages and records for this station are not official NWS values.
T = Trace of Precipitation, MM = Missing Value Source: NWS Daily Summary

Daily Weather History Graph

Daily Weather History Graph

Search for Another Location

Airport:

Trip Planner

Search our weather history database for the weather conditions in past years. The results will help you decide how hot, cold, wet, or windy it might be!

Date:

Astronomy

Dec. 22, 2012 Rise Set
Actual Time 7:50 AM CST 5:35 PM CST
Civil Twilight 7:22 AM CST 6:03 PM CST
Nautical Twilight 6:50 AM CST 6:35 PM CST
Astronomical Twilight 6:18 AM CST 7:06 PM CST
Moon 1:48 PM CST (12/22) 2:43 AM CST (12/22)
Length of Visible Light 10h 41m
Length of Day
9h 44m
Waxing Gibbous, 74% of the Moon is Illuminated
Dec 22
Waxing Gibbous
Dec 28
Full
Jan 4
Last Quarter
Jan 11
New
Jan 18
First Quarter

Hourly Weather History & Observations

Time (CST) Temp. Windchill Dew Point Humidity Pressure Visibility Wind Dir Wind Speed Gust Speed Precip Events Conditions
12:15 AM 42.8 °F 34.3 °F 1.4 °F 18% 30.14 in 10.0 mi SW 19.6 mph - N/A   Clear
12:35 AM 41.0 °F 33.5 °F 3.2 °F 21% 30.14 in 10.0 mi SW 13.8 mph - N/A   Clear
12:55 AM 39.2 °F 30.5 °F 3.2 °F 22% 30.14 in 10.0 mi SW 16.1 mph - N/A   Clear
1:15 AM 37.4 °F 27.8 °F 3.2 °F 24% 30.14 in 10.0 mi SW 17.3 mph - N/A   Clear
1:35 AM 37.4 °F 28.2 °F 3.2 °F 24% 30.13 in 10.0 mi SW 16.1 mph - N/A   Clear
1:55 AM 37.4 °F 27.8 °F 3.2 °F 24% 30.12 in 10.0 mi SW 17.3 mph - N/A   Clear
2:15 AM 35.6 °F 26.2 °F 3.2 °F 26% 30.12 in 10.0 mi SW 15.0 mph - N/A   Clear
2:35 AM 37.4 °F 28.5 °F 1.4 °F 22% 30.12 in 10.0 mi SW 15.0 mph - N/A   Clear
2:55 AM 37.4 °F 28.9 °F 1.4 °F 22% 30.12 in 10.0 mi SW 13.8 mph - N/A   Clear
3:15 AM 35.6 °F 27.5 °F 1.4 °F 24% 30.11 in 10.0 mi WSW 11.5 mph - N/A   Clear
3:35 AM 35.6 °F 27.5 °F 3.2 °F 26% 30.10 in 10.0 mi SW 11.5 mph - N/A   Clear
3:55 AM 33.8 °F 25.3 °F 3.2 °F 28% 30.09 in 10.0 mi SW 11.5 mph - N/A   Clear
4:15 AM 35.6 °F 25.9 °F 3.2 °F 26% 30.08 in 10.0 mi SW 16.1 mph - N/A   Clear
4:35 AM 33.8 °F 24.8 °F 3.2 °F 28% 30.08 in 10.0 mi WSW 12.7 mph - N/A   Clear
4:55 AM 35.6 °F 27.5 °F 3.2 °F 26% 30.07 in 10.0 mi WSW 11.5 mph - N/A   Clear
5:15 AM 37.4 °F 29.8 °F 1.4 °F 22% 30.07 in 10.0 mi WSW 11.5 mph - N/A   Clear
5:35 AM 35.6 °F 28.6 °F 3.2 °F 26% 30.07 in 10.0 mi WSW 9.2 mph - N/A   Clear
5:55 AM 33.8 °F 27.0 °F 3.2 °F 28% 30.06 in 10.0 mi WSW 8.1 mph - N/A   Clear
6:15 AM 32.0 °F 23.6 °F 3.2 °F 30% 30.07 in 10.0 mi WSW 10.4 mph - N/A   Clear
6:35 AM 32.0 °F 22.5 °F 3.2 °F 30% 30.06 in 10.0 mi WSW 12.7 mph - N/A   Clear
6:55 AM 33.8 °F 24.8 °F 5.0 °F 30% 30.06 in 10.0 mi WSW 12.7 mph - N/A   Clear
7:15 AM 35.6 °F 26.6 °F 3.2 °F 26% 30.06 in 10.0 mi WSW 13.8 mph - N/A   Clear
7:35 AM 37.4 °F 28.9 °F 3.2 °F 24% 30.05 in 10.0 mi SW 13.8 mph - N/A   Clear
7:55 AM 35.6 °F 27.1 °F 3.2 °F 26% 30.05 in 10.0 mi WSW 12.7 mph - N/A   Clear
8:15 AM 35.6 °F 26.6 °F 5.0 °F 28% 30.05 in 10.0 mi WSW 13.8 mph - N/A   Clear
8:35 AM 37.4 °F 29.8 °F 5.0 °F 26% 30.04 in 10.0 mi SW 11.5 mph - N/A   Clear
8:55 AM 41.0 °F 33.1 °F 3.2 °F 21% 30.03 in 10.0 mi WSW 15.0 mph - N/A   Clear
9:15 AM 42.8 °F 36.6 °F 5.0 °F 21% 30.04 in 10.0 mi West 11.5 mph - N/A   Clear
9:35 AM 44.6 °F 38.4 °F 5.0 °F 20% 30.03 in 10.0 mi West 12.7 mph - N/A   Clear
9:55 AM 46.4 °F 41.1 °F 5.0 °F 18% 30.05 in 10.0 mi West 11.5 mph - N/A   Clear
10:15 AM 48.2 °F - 5.0 °F 17% 30.05 in 10.0 mi West 13.8 mph - N/A   Clear
10:35 AM 50.0 °F - 3.2 °F 15% 30.05 in 10.0 mi West 11.5 mph - N/A   Clear
10:55 AM 50.0 °F - 3.2 °F 15% 30.05 in 10.0 mi West 16.1 mph - N/A   Clear
11:15 AM 51.8 °F - 3.2 °F 14% 30.05 in 10.0 mi West 12.7 mph - N/A   Clear
11:35 AM 53.6 °F - 3.2 °F 13% 30.03 in 10.0 mi West 16.1 mph 20.7 mph N/A   Clear
11:55 AM 53.6 °F - 3.2 °F 13% 30.01 in 10.0 mi WSW 15.0 mph - N/A   Clear
12:15 PM 51.8 °F - 3.2 °F 14% 30.00 in 10.0 mi West 15.0 mph - N/A   Clear
12:35 PM 53.6 °F - 3.2 °F 13% 29.99 in 10.0 mi West 17.3 mph - N/A   Clear
12:55 PM 53.6 °F - 3.2 °F 13% 29.98 in 10.0 mi West 12.7 mph - N/A   Clear
1:15 PM 53.6 °F - 3.2 °F 13% 29.97 in 10.0 mi West 12.7 mph - N/A   Clear
1:35 PM 53.6 °F - 3.2 °F 13% 29.96 in 10.0 mi WSW 12.7 mph - N/A   Clear
1:55 PM 55.4 °F - 3.2 °F 12% 29.95 in 10.0 mi WSW 11.5 mph - N/A   Clear
2:15 PM 55.4 °F - 3.2 °F 12% 29.95 in 10.0 mi WSW 10.4 mph - N/A   Clear
2:35 PM 53.6 °F - 3.2 °F 13% 29.94 in 10.0 mi West 10.4 mph - N/A   Clear
2:55 PM 53.6 °F - 3.2 °F 13% 29.94 in 10.0 mi West 10.4 mph - N/A   Clear
3:15 PM 53.6 °F - 3.2 °F 13% 29.94 in 10.0 mi West 8.1 mph - N/A   Clear
3:35 PM 53.6 °F - 3.2 °F 13% 29.95 in 10.0 mi West 9.2 mph - N/A   Clear
3:55 PM 53.6 °F - 3.2 °F 13% 29.94 in 10.0 mi West 8.1 mph - N/A   Clear
4:35 PM 53.6 °F - 3.2 °F 13% 29.95 in 10.0 mi West 8.1 mph - N/A   Clear
4:55 PM 51.8 °F - 3.2 °F 14% 29.95 in 10.0 mi West 4.6 mph - N/A   Clear
5:15 PM 50.0 °F - 3.2 °F 15% 29.94 in 10.0 mi WSW 3.5 mph - N/A   Clear
5:35 PM 44.6 °F 40.7 °F 5.0 °F 20% 29.94 in 10.0 mi SSW 6.9 mph - N/A   Clear
5:55 PM 46.4 °F 44.3 °F 3.2 °F 17% 29.94 in 10.0 mi WSW 4.6 mph - N/A   Clear
6:15 PM 46.4 °F 45.2 °F 3.2 °F 17% 29.93 in 10.0 mi SW 3.5 mph - N/A   Clear
6:35 PM 46.4 °F 44.3 °F 3.2 °F 17% 29.94 in 10.0 mi West 4.6 mph - N/A   Clear
6:55 PM 44.6 °F 41.4 °F 3.2 °F 18% 29.95 in 10.0 mi West 5.8 mph - N/A   Clear
7:15 PM 42.8 °F 39.3 °F 5.0 °F 21% 29.96 in 10.0 mi WSW 5.8 mph - N/A   Clear
7:35 PM 44.6 °F 41.4 °F 5.0 °F 20% 29.96 in 10.0 mi West 5.8 mph - N/A   Clear
7:55 PM 44.6 °F 40.7 °F 5.0 °F 20% 29.96 in 10.0 mi WNW 6.9 mph - N/A   Clear
8:15 PM 42.8 °F 38.6 °F 6.8 °F 23% 29.96 in 10.0 mi WNW 6.9 mph - N/A   Clear
8:35 PM 41.0 °F 36.4 °F 6.8 °F 24% 29.95 in 10.0 mi NW 6.9 mph - N/A   Clear
8:55 PM 42.8 °F 39.3 °F 5.0 °F 21% 29.95 in 10.0 mi WNW 5.8 mph - N/A   Clear
9:15 PM 42.8 °F 40.1 °F 6.8 °F 23% 29.95 in 10.0 mi NW 4.6 mph - N/A   Clear
9:35 PM 42.8 °F 39.3 °F 8.6 °F 25% 29.96 in 10.0 mi NNW 5.8 mph - N/A   Clear
9:55 PM 41.0 °F 37.1 °F 10.4 °F 29% 29.95 in 10.0 mi North 5.8 mph - N/A   Clear
10:15 PM 41.0 °F 36.4 °F 10.4 °F 29% 29.94 in 10.0 mi North 6.9 mph - N/A   Clear
10:35 PM 39.2 °F 34.2 °F 10.4 °F 31% 29.95 in 10.0 mi NW 6.9 mph - N/A   Clear
10:55 PM 33.8 °F 27.7 °F 10.4 °F 38% 29.95 in 10.0 mi NW 6.9 mph - N/A   Clear
11:15 PM 33.8 °F 27.0 °F 10.4 °F 38% 29.95 in 10.0 mi WNW 8.1 mph - N/A   Clear
11:35 PM 33.8 °F 27.0 °F 10.4 °F 38% 29.95 in 10.0 mi WNW 8.1 mph - N/A   Clear
11:55 PM 32.0 °F 24.8 °F 8.6 °F 38% 29.95 in 10.0 mi WNW 8.1 mph - N/A   Clear